Location: Marsån
(66.4167°N, 22.2833°E)
Time: 07:20:44
(UTC+00:00)

Cosmos 2026 Rocket - Pass Details

Date: 24 February 2024
Orbit: 939 x 999 km, 82.9° (Epoch: 28 April)

Event Time Altitude Azimuth Distance (km) Brightness Sun altitude
Rises 16:21:28 0° 335° (NNW) 3,623 7.2 -6.4°
Reaches altitude 10° 16:24:06 10° 342° (NNW) 2,680 6.4 -6.7°
Maximum altitude 16:29:55 43° 53° (NE) 1,325 4.4 -7.3°
Drops below altitude 10° 16:35:46 10° 125° (SE) 2,701 5.9 -7.8°
Sets 16:38:25 0° 132° (SE) 3,654 6.6 -8.1°
